x

Frying Pan Shoals, Nc Buoy (41013) Wave Buoy

7:50pm - Thu 29th Sep 2016 All times are EDT. -4 hours from GMT.

  • Sig Wave height 3.3ft
  • Swell Direction
  • Peak Period 5s
  • Average Period 5s
  • Wind
    13mph, 18mph gusts
  • Sea Temp 82°f
  • Air Temp 81°f
  • Sea Pressure 1015.3mb
  • Frying Pan Shoals, Nc Buoy
  • Frying Pan Shoals, Nc Buoy

More Historic Weather Station data

Upgrade to MSW Pro to gain access to the past 30 days of data for over 8000 Wavebouys and Weather Stations around the globe.

Join Pro

Comparision Forecast

View Surf forecast
   
Thu 09/29 7:50pm 3.5ft 5s 5s 13 18 mph 1015.3mb 82f 81f
7:40pm 3.5ft  -  5s 13 16 mph 1015.5mb 82f 81f
7:20pm  -   -   -  9 13 mph 1015.5mb 82f 81f
7:10pm  -   -   -  9 11 mph 1015.6mb 82f 81f
7:00pm  -   -   -  9 11 mph 1015.8mb 82f 81f
6:50pm 3.5ft 5s 5s 9 11 mph 1015.8mb 82f 81f
6:40pm 3.5ft  -  5s 9 13 mph 1015.5mb 82f 81f
6:30pm  -   -   -  9 13 mph 1015.6mb 82f 81f
6:20pm  -   -   -  11 13 mph 1015.5mb 82f 81f
6:10pm  -   -   -  11 13 mph 1015.6mb 82f 81f
6:00pm  -   -   -  11 13 mph 1015.6mb 82f 81f
5:50pm 3.5ft 5s 5s 9 13 mph 1015.6mb 82f 81f
5:40pm 3.5ft  -  5s 9 11 mph 1015.6mb 82f 81f
5:30pm  -   -   -  9 13 mph 1015.5mb 82f 81f
5:20pm  -   -   -  9 11 mph 1015.5mb 82f 81f
5:10pm  -   -   -  9 11 mph 1015.5mb 82f 81f
5:00pm  -   -   -  9 11 mph 1015.3mb 82f 81f
4:50pm 3.5ft 5s 4s 9 11 mph 1015.3mb 82f 81f
4:40pm 3.5ft  -  4s 9 11 mph 1015.1mb 82f 80f
4:30pm  -   -   -  9 11 mph 1015mb 82f 80f
4:20pm  -   -   -  11 16 mph 1015.1mb 82f 80f
4:10pm  -   -   -  11 13 mph 1015.1mb 82f 80f
4:00pm  -   -   -  11 13 mph 1015.3mb 82f 80f
3:50pm 3.5ft 5s 5s 11 13 mph 1015.1mb 82f 80f
3:40pm 3.5ft  -  5s 11 13 mph 1015mb 82f 80f
3:30pm  -   -   -  9 13 mph 1015mb 82f 80f
3:20pm  -   -   -  11 13 mph 1014.8mb 82f 80f
3:10pm  -   -   -  11 13 mph 1014.8mb 82f 80f
3:00pm  -   -   -  11 13 mph 1014.8mb 82f 80f
2:50pm 4ft 5s 5s 11 13 mph 1014.8mb 82f 80f
2:40pm 4ft  -  5s 13 16 mph 1014.9mb 82f 80f
2:30pm  -   -   -  13 16 mph 1015mb 82f 80f
2:20pm  -   -   -  13 16 mph 1015.3mb 82f 80f
2:10pm  -   -   -  13 16 mph 1015.5mb - 80f
2:00pm  -   -   -  13 16 mph 1015.6mb 82f 80f
1:50pm 4ft 6s 5s 11 16 mph 1015.6mb 82f 80f
1:40pm 4ft  -  5s 13 18 mph 1015.8mb 82f 80f
1:30pm  -   -   -  13 18 mph 1015.9mb 82f 80f
1:20pm  -   -   -  13 16 mph 1015.9mb 82f 80f
1:10pm  -   -   -  13 16 mph 1016mb 82f 80f
1:00pm  -   -   -  13 16 mph 1016.1mb 82f 80f
12:50pm 3.5ft 5s 5s 13 18 mph 1016mb 82f 80f
12:40pm 3.5ft  -  5s 13 18 mph 1016.1mb 82f 80f
12:30pm  -   -   -  13 16 mph 1016.3mb 82f 80f
12:20pm  -   -   -  13 16 mph 1016.4mb 82f 80f
12:10pm  -   -   -  13 18 mph 1016.5mb 82f 81f
12:00pm  -   -   -  16 18 mph 1016.5mb 82f 80f
11:50am 3.5ft 11s 5s 16 20 mph 1016.5mb 82f 81f
11:40am 3.5ft  -  5s 16 18 mph 1016.5mb 82f 81f
11:30am  -   -   -  16 20 mph 1016.3mb 82f 81f
11:20am  -   -   -  18 20 mph 1016mb 82f 81f
11:10am  -   -   -  18 20 mph 1015.8mb 82f 81f
11:00am  -   -   -  16 20 mph 1015.5mb 82f 81f
10:50am 3.5ft 4s 4s 16 20 mph 1015.5mb 82f 81f
10:40am 3.5ft  -  4s 16 18 mph 1015.4mb 82f 81f
10:30am  -   -   -  16 20 mph 1015.4mb 82f 81f
10:20am  -   -   -  16 18 mph 1015.1mb 82f 81f
10:10am  -   -   -  13 18 mph 1015.3mb 82f 81f
10:00am  -   -   -  16 18 mph 1015.5mb 82f 80f
9:50am 3.5ft 11s 5s 13 18 mph 1015.5mb 82f 80f
9:40am 3.5ft  -  5s 13 18 mph 1015.5mb 82f 80f
9:30am  -   -   -  13 16 mph 1015.5mb 82f 80f
9:20am  -   -   -  13 18 mph 1015.5mb 82f 79f
9:10am  -   -   -  13 18 mph 1015.4mb 82f 79f
9:00am  -   -   -  16 18 mph 1015.1mb 82f 78f
8:50am 3.5ft 11s 4s 16 20 mph 1015mb 82f 78f
8:40am 3.5ft  -  4s 18 20 mph 1015mb 82f 79f
8:30am  -   -   -  18 22 mph 1015mb 82f 79f
8:20am  -   -   -  16 20 mph 1014.9mb 82f 79f
8:10am  -   -   -  18 22 mph 1014.8mb 82f 78f
8:00am  -   -   -  18 22 mph 1014.9mb 82f 79f
7:50am 3ft 11s 4s 20 25 mph 1014.6mb 82f 79f
7:40am 3ft  -  4s 18 22 mph 1014.6mb 82f 79f
7:30am  -   -   -  16 20 mph 1014.5mb 82f 80f
7:20am  -   -   -  13 18 mph 1014.5mb 82f 80f
7:10am  -   -   -  13 18 mph 1014.5mb 82f 79f
7:00am  -   -   -  11 16 mph 1014.4mb 82f 79f
6:50am 3ft 11s 5s 9 11 mph 1014.5mb 82f 78f
6:40am  -   -   -  11 13 mph 1014.5mb 82f 77f
6:30am  -   -   -  11 13 mph 1014.5mb 82f 78f
6:20am  -   -   -  13 16 mph 1014.4mb 82f 78f
6:10am  -   -   -  13 20 mph 1014mb 82f 78f
6:00am  -   -   -  16 20 mph 1014.4mb 82f 78f
5:50am 3ft 11s 5s 18 25 mph 1014.5mb 82f 79f
5:40am 3ft  -  5s 13 16 mph 1014.4mb 82f 81f
5:30am  -   -   -  11 13 mph 1014.3mb 82f 82f
5:20am  -   -   -  13 16 mph 1014.4mb 82f 82f
5:10am  -   -   -  13
mph
1014.3mb 82f 82f
5:00am  -   -   -  11 16 mph 1014.1mb 82f 82f
4:50am 3ft 8s 5s 11 13 mph 1014mb 82f 82f
4:40am  -   -   -  11 13 mph 1014mb 82f 82f
4:30am  -   -   -  11 13 mph 1014mb 82f 82f
4:20am  -   -   -  11 13 mph 1013.9mb 82f 82f
4:10am  -   -   -  11 13 mph 1014mb 82f 82f
4:00am  -   -   -  11 13 mph 1013.8mb 82f 82f
3:50am 2.5ft 11s 5s 11 13 mph 1013.9mb 82f 82f
3:40am  -   -   -  11 13 mph 1013.9mb 82f 82f
3:30am  -   -   -  11 13 mph 1014mb 82f 82f
3:20am  -   -   -  11 13 mph 1014mb 82f 82f
3:10am  -   -   -  11 13 mph 1014.1mb 82f 82f
3:00am  -   -   -  11 16 mph 1014.4mb 82f 82f
2:50am 3ft 7s 5s 11 13 mph 1014.5mb 82f 82f
2:40am 3ft  -  5s 13 16 mph 1014.5mb 82f 82f
2:30am  -   -   -  11 13 mph 1014.6mb 82f 82f
2:20am  -   -   -  11 13 mph 1014.5mb 82f 82f
2:10am  -   -   -  13 16 mph 1014.6mb 82f 82f
2:00am  -   -   -  11 16 mph 1014.8mb 82f 82f
1:50am 3ft 7s 5s 11 13 mph 1014.9mb 82f 82f
1:40am  -   -   -  11 16 mph 1014.9mb 82f 82f
1:30am  -   -   -  11 16 mph 1015mb 82f 82f
1:20am  -   -   -  13 16 mph 1015mb 82f 82f
1:10am  -   -   -  13 16 mph 1015mb 82f 82f
1:00am  -   -   -  11 16 mph 1015mb 82f 82f
12:50am 3ft 7s 5s 13 16 mph 1015.1mb 82f 82f
12:40am  -   -   -  13 18 mph 1015.1mb 82f 82f
12:30am  -   -   -  13 18 mph 1015.1mb 82f 82f
12:20am  -   -   -  13 16 mph 1015.1mb 82f 82f
12:10am  -   -   -  13 16 mph 1015.1mb 82f 82f
12:00am  -   -   -  13 18 mph 1015.1mb 82f 82f
Wed 09/28 11:50pm 3ft 7s 5s 13 16 mph 1015.3mb 82f 82f
11:40pm 3ft  -  5s 11 16 mph 1015.4mb 82f 82f
11:30pm  -   -   -  11 16 mph 1015.4mb 82f 82f
11:20pm  -   -   -  13 16 mph 1015.4mb 82f 82f
11:10pm  -   -   -  13 16 mph 1015.3mb 82f 82f
11:00pm  -   -   -  11 16 mph 1015.3mb 82f 82f
10:50pm 3ft 11s 6s 11 13 mph 1015.4mb 82f 82f
10:40pm  -   -   -  11 13 mph 1015.4mb 82f 82f
10:30pm  -   -   -  11 13 mph 1015.5mb 82f 82f
10:20pm  -   -   -  11 13 mph 1015.5mb 82f 82f
10:10pm  -   -   -  11 13 mph 1015.5mb 82f 82f
10:00pm  -   -   -  11 13 mph 1015.5mb 82f 82f
9:50pm 3ft 7s 6s 11 13 mph 1015.5mb 82f 82f
9:40pm 3ft  -  6s 11 13 mph 1015.5mb 82f 82f
9:30pm  -   -   -  11 13 mph 1015.5mb 82f 82f
9:20pm  -   -   -  11 13 mph 1015.3mb 82f 81f
9:10pm  -   -   -  11 13 mph 1015.3mb 82f 81f
9:00pm  -   -   -  11 13 mph - - 81f
8:50pm 3ft 11s 6s 11 13 mph 1015.3mb 82f 81f
8:40pm 3ft  -  6s 11 13 mph 1015.1mb 82f 81f
8:30pm  -   -   -  9 13 mph 1015mb 82f 81f
8:20pm  -   -   -  11 13 mph 1015mb 82f 81f
8:10pm  -   -   -  11 13 mph 1015mb 82f 81f
8:00pm  -   -   -  11 13 mph 1014.8mb 82f 81f
7:50pm 2.5ft 7s 6s 11 13 mph 1014.5mb 82f 81f
7:40pm 2.5ft  -  6s 11 13 mph 1014.4mb 82f 81f
7:30pm  -   -   -  11 13 mph 1014.4mb 83f 81f
7:20pm  -   -   -  11 13 mph 1014.1mb 83f 81f
7:10pm  -   -   -  11 13 mph 1014mb 83f 81f
7:00pm  -   -   -  11 13 mph 1014mb 83f 81f
6:50pm 3ft 11s 7s 11 13 mph 1013.8mb 83f 81f
6:40pm 3ft  -  7s 11 13 mph 1013.8mb 83f 81f
6:30pm  -   -   -  9 11 mph 1013.8mb - 81f
6:20pm  -   -   -  9 11 mph 1013.8mb 83f 81f
6:10pm  -   -   -  9 11 mph 1013.9mb 83f 81f
6:00pm  -   -   -  9 13 mph 1013.9mb 83f 81f
5:50pm 2.5ft 12s 7s 9 11 mph 1013.9mb 83f 81f
5:40pm 2.5ft  -  7s 9 11 mph 1013.9mb 83f 81f
5:30pm  -   -   -  9 11 mph 1013.9mb 83f 81f
5:20pm  -   -   -  9 13 mph 1013.9mb 83f 81f
5:10pm  -   -   -  7 13 mph 1013.9mb 83f 81f
5:00pm  -   -   -  9
mph
1013.9mb 83f 81f
4:50pm 3ft 11s 7s 7 11 mph 1013.9mb 83f 81f
4:40pm 3ft  -  7s 7 11 mph 1014mb 83f 81f
4:30pm  -   -   -  7 9 mph 1014mb 83f 81f
4:20pm  -   -   -  7 9 mph 1014.1mb 83f 81f
4:10pm  -   -   -  7 9 mph 1014mb 83f 81f
4:00pm  -   -   -  7 9 mph 1014.3mb 83f 81f
3:50pm 2.5ft 11s 6s 7 9 mph 1014.3mb 83f 81f
3:40pm 2.5ft  -  6s 4 7 mph 1014.3mb 83f 81f
3:30pm  -   -   -  7 9 mph 1014.5mb 83f 81f
3:20pm  -   -   -  7 9 mph 1014.5mb 83f 81f
3:10pm  -   -   -  4 7 mph 1014.6mb 83f 81f
3:00pm  -   -   -  4 7 mph 1014.6mb 83f 81f
2:50pm 3ft 11s 6s 4 7 mph 1014.5mb 83f 81f
2:40pm 3ft  -  6s 4 7 mph 1014.8mb 83f 81f
2:30pm  -   -   -  4 7 mph 1014.9mb 83f 81f
2:20pm  -   -   -  4 7 mph 1014.9mb 83f 81f
2:10pm  -   -   -  4 9 mph 1014.9mb 83f 80f
2:00pm  -   -   -  4 7 mph 1014.9mb 83f 81f
1:50pm 3.5ft 6s 6s 4 7 mph 1015mb 82f 81f
1:40pm 3.5ft  -  6s 4 7 mph 1015.1mb 82f 81f
1:30pm  -   -   -  4 7 mph 1015.1mb 82f 80f
1:20pm  -   -   -  4 7 mph 1015.1mb 82f 81f
1:10pm  -   -   -  4 7 mph 1015.1mb 82f 80f
1:00pm  -   -   -  4 7 mph 1015.1mb 82f 81f
12:50pm 3.5ft 7s 6s 4 7 mph 1015.3mb 82f 81f
12:40pm 3.5ft  -  6s 4 7 mph 1015.3mb 82f 81f
12:30pm  -   -   -  4 7 mph 1015.3mb 82f 81f
12:20pm  -   -   -  2 7 mph 1015.3mb 82f 82f
12:10pm  -   -   -  2 4 mph 1015.1mb 82f 81f
12:00pm  -   -   -  2 7 mph 1015.1mb 82f 81f
11:50am 3.5ft 7s 6s 2 4 mph 1015.3mb 82f 81f
11:40am 3.5ft  -  6s  -  2 mph 1015.3mb 82f 82f
11:30am  -   -   -  2
mph
1015.4mb 82f 81f
11:20am  -   -   -   -  2 mph 1015.4mb 82f 82f
11:10am  -   -   -   -  2 mph 1015.4mb 82f 82f
11:00am  -   -   -  2 4 mph 1015.3mb 82f 81f
10:50am 3.5ft 7s 6s 2
mph
1015.3mb 82f 81f
10:40am 3.5ft  -  6s 2
mph
1015.3mb 82f 81f
10:30am  -   -   -  2 4 mph 1015mb 82f 80f
10:20am  -   -   -  2 4 mph 1015mb 82f 81f
10:10am  -   -   -  2
mph
1015mb 82f 81f
10:00am  -   -   -  2 4 mph 1014.9mb 82f 80f
9:50am 3.5ft 7s 6s 2 4 mph 1014.6mb 82f 80f
9:40am 3.5ft  -  6s 2 4 mph 1014.6mb 82f 80f
9:30am  -   -   -  2 4 mph 1014.5mb 82f 80f
9:20am  -   -   -  2 4 mph 1014.4mb 82f 80f
9:10am  -   -   -  2 4 mph 1014.3mb 82f 81f
9:00am  -   -   -  2 4 mph 1014.1mb 82f 80f
8:50am 3.5ft 7s 7s 2 4 mph 1014mb 82f 80f
8:40am  -   -   -  2 4 mph 1014mb 82f 80f
8:30am  -   -   -  2 4 mph 1014mb 82f 81f
8:20am  -   -   -   -  2 mph 1014mb 82f 81f
8:10am  -   -   -   -  2 mph 1013.8mb 82f 80f
8:00am  -   -   -  2 4 mph 1013.8mb 82f 80f
7:50am 3.5ft 12s 7s 2 4 mph 1013.9mb 82f 80f
7:40am 3.5ft  -  7s 2 4 mph 1013.8mb 82f 80f
7:30am  -   -   -  2 4 mph 1013.8mb 82f 79f
7:20am  -   -   -  2 4 mph 1013.8mb 82f 79f
7:10am  -   -   -  2 4 mph 1013.8mb 82f 79f
7:00am  -   -   -  2 4 mph 1013.5mb 82f 79f
6:50am 3.5ft 7s 6s 4
mph
1013.4mb 82f 79f
6:40am 3.5ft  -  6s 4
mph
1013.3mb 82f 79f
6:30am  -   -   -  4 7 mph 1013.4mb 82f 79f
6:20am  -   -   -  2 4 mph 1013.1mb 82f 79f
6:10am  -   -   -  2 4 mph 1013.3mb 82f 79f
6:00am  -   -   -  2 4 mph 1013.1mb 82f 79f
5:50am 3.5ft 7s 6s 2 4 mph 1013mb 82f 79f
5:40am  -   -   -   -  2 mph 1013mb 82f 79f
5:30am  -   -   -  2
mph
1013mb 82f 79f
5:20am  -   -   -   -  4 mph 1013mb 82f 79f
5:10am  -   -   -  2 4 mph 1012.9mb 82f 79f
5:00am  -   -   -  2 4 mph 1012.8mb 82f 79f
4:50am 3.5ft 11s 6s 2 4 mph 1012.5mb 82f 79f
4:40am 3.5ft  -  6s 2 4 mph 1012.5mb 82f 79f
4:30am  -   -   -  4 7 mph 1012.6mb 82f 79f
4:20am  -   -   -  4 7 mph 1012.8mb 82f 79f
4:10am  -   -   -  4 7 mph 1012.6mb 82f 79f
4:00am  -   -   -  4 7 mph 1012.6mb 82f 79f
3:50am 3.5ft 7s 6s 4 7 mph 1012.6mb 82f 79f
3:40am 3.5ft  -  6s 4 7 mph 1012.8mb 82f 79f
3:30am  -   -   -  4 9 mph 1012.8mb 82f 79f
3:20am  -   -   -  4
mph
1013mb 82f 79f
3:10am  -   -   -  4
mph
1013mb 82f 79f
3:00am  -   -   -  2 4 mph 1013mb 82f 79f
2:50am 4ft 7s 6s 2 4 mph 1013mb 82f 79f
2:40am  -   -   -  2 4 mph 1013mb 82f 80f
2:30am  -   -   -   -  2 mph 1013mb 82f 79f
2:20am  -   -   -  2 4 mph 1013mb 82f 79f
2:10am  -   -   -  2 4 mph 1013mb 82f 79f
2:00am  -   -   -   -  mph 1013mb 82f 79f
1:50am 3.5ft 11s 6s  -  2 mph 1013mb 82f 80f
1:40am 3.5ft  -  6s 2 4 mph 1012.8mb 82f 80f
1:30am  -   -   -  2 4 mph 1012.9mb 82f 80f
1:20am  -   -   -  2 4 mph 1012.9mb 82f 80f
1:10am  -   -   -  2 4 mph 1012.8mb 82f 79f
1:00am  -   -   -   -  2 mph 1012.6mb 82f 80f
12:50am 3.5ft 11s 6s  -  2 mph 1012.8mb 82f 79f
12:40am 3.5ft  -  6s  -  4 mph 1012.5mb 82f 80f
12:30am  -   -   -  2 4 mph 1012.5mb 82f 80f
12:20am  -   -   -  2 4 mph 1012.6mb 82f 80f
12:10am  -   -   -  2 4 mph 1012.6mb 82f 80f
12:00am  -   -   -  2 4 mph 1012.5mb 82f 80f
Tue 09/27 11:50pm 3.5ft 11s 6s 2 4 mph 1012.6mb 82f 80f
11:40pm 3.5ft  -  6s 2 4 mph 1012.6mb 82f 80f
11:30pm  -   -   -  4 7 mph 1012.5mb 82f 80f
11:20pm  -   -   -  2 4 mph 1012.6mb 82f 80f
11:10pm  -   -   -  4 7 mph 1012.5mb 82f 80f
11:00pm  -   -   -  4 7 mph 1012.5mb 82f 80f
10:50pm 3.5ft 12s 6s 4 7 mph 1012.5mb 82f 80f
10:40pm 3.5ft  -  6s 4 7 mph 1012.4mb 82f 80f
10:30pm  -   -   -  7 9 mph 1012.4mb 82f 80f
10:20pm  -   -   -  7 9 mph 1012.5mb 82f 80f
10:10pm  -   -   -  7 9 mph 1012.1mb 82f 80f
10:00pm  -   -   -  7 11 mph 1012.3mb 82f 80f
9:50pm 3ft 11s 6s 7 11 mph 1012.4mb 82f 80f
9:40pm 3ft  -  6s 9 11 mph 1012.4mb 82f 80f
9:30pm  -   -   -  9 11 mph 1012.3mb 82f 80f
9:20pm  -   -   -  7 11 mph 1012.1mb 82f 80f
9:10pm  -   -   -  7 11 mph 1012.1mb 82f 80f
9:00pm  -   -   -  9 11 mph 1012.1mb 82f 80f
8:50pm 3ft 7s 6s 7 11 mph 1012.1mb 82f 80f
8:40pm 3ft  -  6s 7 11 mph 1012.1mb 82f 80f
8:30pm  -   -   -  9 11 mph 1012.1mb 82f 80f
8:20pm  -   -   -  9 11 mph 1012mb 82f 80f
8:10pm  -   -   -  7 11 mph 1011.8mb 82f 80f
8:00pm  -   -   -  7 9 mph 1011.6mb 82f 80f
7:50pm 3ft 12s 6s 7 9 mph 1011.6mb 82f 80f
7:40pm 3ft  -  6s 7 11 mph 1011.6mb 82f 80f
7:30pm  -   -   -  7 9 mph 1011.5mb 82f 80f
7:20pm  -   -   -  7 9 mph 1011.4mb 82f 80f
7:10pm  -   -   -  7 9 mph 1011.3mb 82f 80f
7:00pm  -   -   -  4 7 mph 1011.3mb 82f 80f
6:50pm 3.5ft 7s 6s 7 9 mph 1011.3mb 82f 80f
6:40pm 3.5ft  -  6s 4 9 mph 1011mb 82f 80f
6:30pm  -   -   -  4 7 mph 1011mb 82f 80f
6:20pm  -   -   -  4 9 mph 1011mb 82f 80f
6:10pm  -   -   -  7 9 mph 1011mb 82f 80f
6:00pm  -   -   -  7 9 mph 1011mb 82f 80f
5:50pm 3ft 6s 6s 4 7 mph 1011mb 82f 80f
5:40pm 3ft  -  6s 7 9 mph 1011mb 82f 80f
5:30pm  -   -   -  7 9 mph 1011mb 82f 80f
5:20pm  -   -   -  7 9 mph 1011.1mb 82f 80f
5:10pm  -   -   -  7 9 mph 1011.1mb 82f 80f
5:00pm  -   -   -  7 9 mph 1011.3mb 82f 80f
4:50pm 3ft 12s 6s 7 9 mph 1011.3mb 82f 80f
4:40pm 3ft  -  6s 7 9 mph 1011.3mb 82f 80f
4:30pm  -   -   -  7 9 mph 1011.5mb 82f 80f
4:20pm  -   -   -  7 9 mph 1011.5mb 82f 80f
4:10pm  -   -   -  7 9 mph 1011.5mb 82f 80f
4:00pm  -   -   -  7 9 mph 1011.5mb 82f 80f
3:50pm 3.5ft 6s 5s 7 9 mph 1011.5mb 82f 80f
3:40pm 3.5ft  -  5s 4 7 mph 1011.6mb 82f 80f
3:30pm  -   -   -  4 7 mph 1011.5mb 82f 80f
3:20pm  -   -   -  7 9 mph 1011.5mb 82f 80f
3:10pm  -   -   -  4 7 mph 1011.8mb 82f 80f
3:00pm  -   -   -  7 9 mph 1011.8mb 82f 80f
2:50pm 3.5ft 6s 5s 7 9 mph 1011.6mb 82f 80f
2:40pm 3.5ft  -  5s 7 9 mph 1011.6mb 82f 80f
2:30pm  -   -   -  7 9 mph 1011.8mb 82f 80f
2:20pm  -   -   -  7 9 mph 1011.6mb 82f 80f
2:10pm  -   -   -  9 11 mph 1011.9mb 82f 80f
2:00pm  -   -   -  9 11 mph 1011.9mb 82f 80f
1:50pm 3.5ft 7s 5s 9 11 mph 1012mb 82f 80f
1:40pm  -   -   -  11 13 mph 1012mb 82f 80f
1:30pm  -   -   -  11 13 mph 1012.1mb 82f 80f
1:20pm  -   -   -  11 13 mph 1012.4mb 82f 80f
1:10pm  -   -   -  11 13 mph 1012.5mb 82f 80f
1:00pm  -   -   -  11 13 mph 1012.5mb 82f 80f
12:50pm 3.5ft 6s 5s 11 13 mph 1012.5mb 82f 80f
12:40pm 3.5ft  -  5s 11 13 mph 1012.6mb 82f 80f
12:30pm  -   -   -  9 13 mph 1012.9mb 82f 80f
12:20pm  -   -   -  9 11 mph 1013mb 82f 80f
12:10pm  -   -   -  9 11 mph 1013.4mb 82f 80f
12:00pm  -   -   -  9 11 mph 1013.5mb 82f 80f
11:50am 3.5ft 6s 5s 9 11 mph 1013.6mb 82f 80f
11:40am 3.5ft  -  5s 9
mph
1013.8mb 82f 80f
11:30am  -   -   -  9
mph
1014mb 82f 80f
11:20am  -   -   -  7 9 mph 1014mb 82f 80f
11:10am  -   -   -  7 9 mph 1014.1mb 82f 80f
11:00am  -   -   -  7 9 mph 1014.1mb 82f 80f
10:50am 3.5ft 7s 6s 7 9 mph 1014.1mb 82f 80f
10:40am 3.5ft  -  6s 7 9 mph 1014.1mb 82f 80f
10:30am  -   -   -  7 9 mph 1014mb 82f 80f
10:20am  -   -   -  4 9 mph 1014mb 82f 80f
10:10am  -   -   -  7 9 mph 1014mb 82f 80f
10:00am  -   -   -  7 9 mph 1014mb 82f 80f
9:50am 3.5ft 6s 5s 7 9 mph 1013.8mb 82f 80f
9:40am 3.5ft  -  5s 7 9 mph 1013.8mb 82f 80f
9:30am  -   -   -  7 9 mph 1013.8mb 82f 80f
9:20am  -   -   -  7 9 mph 1013.5mb 82f 80f
9:10am  -   -   -  7 9 mph 1013.5mb 82f 80f
9:00am  -   -   -  7 9 mph 1013.5mb 82f 80f
8:50am 3.5ft 7s 5s 7 9 mph 1013.6mb 82f 80f
8:40am 3.5ft  -  5s 7 9 mph 1013.8mb 82f 80f
8:30am  -   -   -  7 9 mph 1013.6mb 82f 80f
8:20am  -   -   -  7 9 mph 1013.8mb 82f 80f
8:10am  -   -   -  4 7 mph 1013.9mb 82f 79f
8:00am  -   -   -  4 7 mph 1014mb 82f 79f
7:50am 3.5ft 6s 5s 7 9 mph 1014mb 82f 79f
7:40am  -   -   -  4 7 mph 1013.8mb 82f 79f
7:30am  -   -   -  4 7 mph 1013.6mb 82f 79f
7:20am  -   -   -  4 7 mph 1013.5mb 82f 79f
7:10am  -   -   -  2 4 mph 1013.5mb 82f 79f
7:00am  -   -   -  4
mph
1013.5mb 82f 79f
6:50am 3.5ft 7s 5s 4 7 mph 1013.5mb 82f 79f
6:40am  -   -   -  2 4 mph 1013.6mb 82f 79f
6:30am  -   -   -  4 7 mph 1013.8mb 82f 79f
6:20am  -   -   -  4 9 mph 1013.5mb 82f 79f
6:10am  -   -   -  4 9 mph 1013.5mb 82f 79f
6:00am  -   -   -  7 9 mph 1013.6mb 82f 79f
5:50am 3.5ft 7s 5s 7 9 mph 1013.6mb 82f 79f
5:40am 3.5ft  -  5s 9 11 mph 1013.6mb 82f 79f
5:30am  -   -   -  9 11 mph 1013.6mb 82f 79f
5:20am  -   -   -  9 11 mph 1013.8mb 82f 80f
5:10am  -   -   -  7 11 mph 1013.8mb 82f 79f
5:00am  -   -   -  9 11 mph 1013.8mb 82f 79f
4:50am 3.5ft 7s 5s 9 13 mph 1013.8mb 82f 79f
4:40am 3.5ft  -  5s 7 11 mph 1013.8mb 82f 80f
4:30am  -   -   -  7 9 mph 1013.6mb 82f 80f
4:20am  -   -   -  7 9 mph 1013.8mb 82f 80f
4:10am  -   -   -  7 11 mph 1013.8mb 82f 80f
4:00am  -   -   -  9 11 mph 1013.8mb 82f 80f
3:50am 4ft 7s 5s 11 13 mph 1013.9mb 82f 80f
3:40am 4ft  -  5s 11 16 mph 1013.8mb 82f 80f
3:30am  -   -   -  11 16 mph 1013.9mb 82f 80f
3:20am  -   -   -  13 16 mph 1014mb 82f 79f
3:10am  -   -   -  13 16 mph 1014mb 82f 79f
3:00am  -   -   -  16 18 mph 1014.3mb 82f 79f
2:50am 4ft 5s 4s 16 20 mph 1014.5mb 82f 79f
2:40am 4ft  -  4s 18 22 mph 1014.6mb 82f 79f
2:30am  -   -   -  18 20 mph 1014.9mb 82f 80f
2:20am  -   -   -  16 20 mph 1015mb 82f 80f
2:10am  -   -   -  16 20 mph 1015.1mb 82f 80f
2:00am  -   -   -  16 20 mph 1015.3mb 82f 80f
1:50am 4ft 5s 4s 16 20 mph 1015.5mb 82f 80f
1:40am 4ft  -  4s 16 18 mph 1015.5mb 82f 80f
1:30am  -   -   -  16 20 mph 1015.5mb 82f 80f
1:20am  -   -   -  16 20 mph 1015.5mb 82f 80f
1:10am  -   -   -  18 20 mph 1015.5mb 82f 80f
1:00am  -   -   -  18 20 mph 1015.3mb 82f 80f
12:50am 4ft 5s 4s 16 20 mph 1015.1mb 82f 80f
12:40am 4ft  -  4s 16 18 mph 1015.3mb 82f 80f
12:30am  -   -   -  16 20 mph 1015.4mb 82f 80f
12:20am  -   -   -  16 18 mph 1015.5mb 82f 80f
12:10am  -   -   -  16 18 mph 1015.5mb 82f 80f
12:00am  -   -   -  13 18 mph 1015.8mb 82f 80f
Mon 09/26 11:50pm 4ft 5s 4s 16 18 mph 1015.9mb 82f 80f
11:40pm 4ft  -  4s 16 20 mph 1015.9mb 82f 80f
11:30pm  -   -   -  18 20 mph 1016mb 82f 80f
11:20pm  -   -   -  18 20 mph 1016mb 82f 80f
11:10pm  -   -   -  18 20 mph 1016.1mb 82f 81f
11:00pm  -   -   -  16 20 mph 1016.4mb 82f 81f
10:50pm 4ft 5s 4s 16 20 mph 1016.4mb 82f 81f
10:40pm 4ft  -  4s 18 20 mph 1016.4mb 82f 81f
10:30pm  -   -   -  16 20 mph 1016.5mb 82f 81f
10:20pm  -   -   -  18 22 mph 1016.6mb 82f 81f
10:10pm  -   -   -  18 22 mph 1016.8mb 82f 81f
10:00pm  -   -   -  18 22 mph 1016.8mb 82f 81f
9:50pm 4ft 5s 5s 18 22 mph 1017mb 82f 81f
9:40pm  -   -   -  18 20 mph 1017mb 82f 81f
9:30pm  -   -   -  18 20 mph 1017mb 82f 81f
9:20pm  -   -   -  16 20 mph 1017mb 82f 81f
9:10pm  -   -   -  18 20 mph 1017mb 82f 81f
9:00pm  -   -   -  18 22 mph 1017mb 82f 81f
8:50pm 3.5ft 5s 4s 18 22 mph 1017mb 82f 81f
8:40pm 3.5ft  -  4s 18 22 mph 1016.9mb 82f 81f
8:30pm  -   -   -  18 22 mph 1016.9mb 82f 81f
8:20pm  -   -   -  18 20 mph 1016.5mb 82f 81f
8:10pm  -   -   -  18 22 mph 1016.5mb 82f 81f
8:00pm  -   -   -  16 20 mph 1016.4mb 82f 80f
7:50pm 3.5ft 5s 4s 9 16 mph 1016.4mb 82f 78f
7:40pm 3.5ft  -  4s 11 16 mph 1016.4mb 82f 77f
7:30pm  -   -   -  18 22 mph - 82f 78f
7:20pm  -   -   -  13 18 mph 1016.3mb 82f 78f
7:10pm  -   -   -  16 20 mph 1016.1mb 82f 78f
7:00pm  -   -   -  18 22 mph 1016mb 82f 79f
6:50pm 3.5ft 8s 5s 16 20 mph 1016mb 82f 79f
6:40pm 3.5ft  -  5s 13 18 mph 1016mb 82f 80f
6:30pm  -   -   -  11 16 mph 1016mb 82f 79f
6:20pm  -   -   -  13 16 mph 1016mb 82f 79f
6:10pm  -   -   -  13 18 mph 1015.9mb 82f 79f
6:00pm  -   -   -  13 18 mph 1015.8mb 82f 80f
5:50pm 3.5ft 8s 5s 13 18 mph 1016mb 82f 79f
5:40pm 3.5ft  -  5s 16 18 mph 1016mb 82f 80f
5:30pm  -   -   -  16 20 mph 1016mb 82f 80f
5:20pm  -   -   -  16 20 mph 1016mb - 79f
5:10pm  -   -   -  16 18 mph 1016mb 82f 79f
5:00pm  -   -   -  18 20 mph 1016mb 82f 79f
4:50pm 3.5ft 8s 5s 18 22 mph 1016.1mb 82f 80f
4:40pm  -   -   -  16 18 mph 1016.3mb 82f 80f
4:30pm  -   -   -  16 18 mph 1016.4mb 82f 80f
4:20pm  -   -   -  13 18 mph 1016.5mb 82f 79f
4:10pm  -   -   -  16 18 mph 1016.5mb 82f 80f
4:00pm  -   -   -  16 18 mph 1016.6mb - -
3:50pm 4ft 5s 4s 16 20 mph 1016.8mb 82f 80f
3:40pm  -   -   -  16 20 mph 1016.9mb 82f 80f
3:30pm  -   -   -  18 20 mph 1016.9mb 82f 80f
3:20pm  -   -   -  18 20 mph 1017mb 82f 80f
3:10pm  -   -   -  18 20 mph 1016.9mb 82f 80f
3:00pm  -   -   -  16 18 mph 1017mb 82f 80f
2:50pm 3.5ft  -  4s 16 20 mph 1017mb 82f 80f
2:40pm  -   -   -  16 20 mph 1017mb 82f 80f
2:30pm  -   -   -  16 20 mph 1017mb 82f 80f
2:20pm  -   -   -  16 18 mph 1017.1mb 82f 80f
2:10pm  -   -   -  16 20 mph 1017.3mb 82f 80f
2:00pm  -   -   -  16 20 mph 1017.5mb 82f 80f
1:50pm 3.5ft 5s 4s 16 20 mph 1017.5mb 82f 80f
1:40pm 3.5ft  -  4s 16 18 mph 1017.8mb 82f 80f
1:30pm  -   -   -  13 18 mph 1017.9mb 82f 80f
1:20pm  -   -   -  16 18 mph 1018mb 82f 80f
1:10pm  -   -   -  16 20 mph 1018.1mb 82f 80f
1:00pm  -   -   -  16 20 mph 1018mb 82f 80f
12:50pm 3.5ft 4s 4s 16 20 mph 1018.3mb 82f 80f
12:40pm 3.5ft  -  4s 16 20 mph 1018.4mb 82f 80f
12:30pm  -   -   -  16 20 mph 1018.4mb 82f 80f
12:20pm  -   -   -  16 20 mph 1018.4mb 82f 80f
12:10pm  -   -   -  16 20 mph 1018.5mb 82f 80f
12:00pm  -   -   -  16 20 mph 1018.5mb 82f 80f
11:50am 3.5ft 4s 4s 16 20 mph 1018.6mb 82f 80f
11:40am 3.5ft  -  4s 16 20 mph 1018.6mb 82f 80f
11:30am  -   -   -  16 20 mph 1018.8mb 82f 80f
11:20am  -   -   -  16 18 mph 1018.9mb 82f 80f
11:10am  -   -   -  16 20 mph 1018.9mb 82f 80f
11:00am  -   -   -  16 18 mph 1018.9mb 82f 80f
10:50am 3.5ft 5s 4s 13 18 mph 1018.9mb 82f 80f
10:40am 3.5ft  -  4s 16 18 mph 1018.9mb 82f 80f
10:30am  -   -   -  13 18 mph 1018.9mb 82f 80f
10:20am  -   -   -  13 18 mph 1018.9mb 82f 80f
10:10am  -   -   -  13 18 mph 1018.9mb 82f 80f
10:00am  -   -   -  13 20 mph 1018.6mb 82f 80f
9:50am 3.5ft 5s 4s 13 18 mph 1018.5mb 82f 80f
9:40am 3.5ft  -  4s 16 18 mph 1018.5mb 82f 80f
9:30am  -   -   -  13 16 mph 1018.5mb 82f 80f
9:20am  -   -   -  16 18 mph 1018.5mb 82f 80f
9:10am  -   -   -  16 20 mph 1018.4mb 82f 80f
9:00am  -   -   -  16 20 mph 1018.1mb 82f 80f
8:50am 3.5ft 9s 4s 16 18 mph 1018.1mb 82f 80f
8:40am 3.5ft  -  4s 16 20 mph 1018.1mb 82f 80f
8:30am  -   -   -  16 20 mph 1018mb 82f 80f
8:20am  -   -   -  16 20 mph 1018mb 82f 80f
8:10am  -   -   -  16 20 mph 1017.9mb 82f 80f
8:00am  -   -   -  16 20 mph 1017.9mb 82f 80f
7:50am 3.5ft 5s 4s 16 20 mph 1017.8mb 82f 80f
7:40am 3.5ft  -  4s 18 20 mph 1017.6mb 82f 80f
7:30am  -   -   -  16 20 mph 1017.5mb 82f 80f
7:20am  -   -   -  16 18 mph 1017.5mb 82f 80f
7:10am  -   -   -  16 20 mph 1017.5mb 82f 79f
7:00am  -   -   -  16 20 mph 1017.4mb 82f 79f
6:50am 3.5ft 5s 5s 16 20 mph 1017.3mb 82f 80f
6:40am 3.5ft  -  5s 16 18 mph 1017.3mb 82f 80f
6:30am  -   -   -  13 18 mph 1017.3mb 82f 80f
6:20am  -   -   -  13 18 mph 1017.3mb 82f 80f
6:10am  -   -   -  13 18 mph 1017mb 82f 80f
6:00am  -   -   -  16 18 mph 1017mb 82f 80f
5:50am 3.5ft 10s 5s 13 18 mph 1017.1mb 82f 80f
5:40am 3.5ft  -  5s 13 18 mph 1017.1mb 82f 80f
5:30am  -   -   -  13 18 mph 1017.3mb 82f 80f
5:20am  -   -   -  13 16 mph 1017.4mb 82f 80f
5:10am  -   -   -  13 18 mph 1017.4mb 82f 79f
5:00am  -   -   -  16 20 mph 1017.4mb 82f 79f
4:50am 4ft 5s 5s 11 18 mph 1017.4mb 82f 80f
4:40am  -   -   -  11 13 mph 1017.5mb 82f 80f
4:30am  -   -   -  11 13 mph 1017.5mb 82f 80f
4:20am  -   -   -  11 13 mph 1017.5mb 82f 80f
4:10am  -   -   -  11 13 mph 1017.6mb 82f 80f
4:00am  -   -   -  11 13 mph 1017.8mb 82f 80f
3:50am 4ft 6s 5s 11 16 mph 1017.8mb 82f 80f
3:40am 4ft  -  5s 11 16 mph 1017.8mb 82f 79f
3:30am  -   -   -  13 16 mph 1017.9mb 82f 79f
3:20am  -   -   -  13 16 mph 1017.9mb 82f 79f
3:10am  -   -   -  13 16 mph 1017.9mb 82f 79f
3:00am  -   -   -  13 18 mph 1018mb 82f 79f
2:50am 4.5ft 6s 5s 13 18 mph 1018mb 82f 79f
2:40am  -   -   -  13 18 mph 1018mb 82f 79f
2:30am  -   -   -  16 18 mph 1018.1mb 82f 79f
2:20am  -   -   -  16 20 mph 1018.1mb 82f 79f
2:10am  -   -   -  16 20 mph 1018.1mb 82f 80f
2:00am  -   -   -  16 20 mph 1018.1mb 82f 79f
1:50am 4.5ft 6s 5s 16 20 mph 1018.1mb 82f 79f
1:40am 4.5ft  -  5s 16 18 mph 1018.1mb 82f 79f
1:30am  -   -   -  16 18 mph 1018.3mb 82f 79f
1:20am  -   -   -  16 20 mph 1018.3mb 82f 79f
1:10am  -   -   -  18 22 mph 1018.3mb 82f 79f
1:00am  -   -   -  18 22 mph 1018.3mb 82f 79f
12:50am 4.5ft 6s 5s 18 22 mph 1018.1mb 82f 79f
12:40am  -   -   -  18 22 mph 1018.4mb 82f 79f